Weather History for Phillips, WI

Change the Weather History Date:

Thursday, January 17, 2013

  Actual Average Record
Temperature  
Mean Temperature 4 °F -  
Max Temperature 12 °F 18 °F 39 °F (1999)
Min Temperature -4 °F 3 °F -20 °F (2005)
Degree Days  
Heating Degree Days 61    
Moisture  
Dew Point -2 °F    
Average Humidity 69    
Maximum Humidity 85    
Minimum Humidity 57    
Precipitation  
Precipitation 0.00 in - - ()
Sea Level Pressure  
Sea Level Pressure 30.23 in    
Wind  
Wind Speed 5 mph (WNW)    
Max Wind Speed 8 mph    
Max Gust Speed -    
Visibility 9 miles    
Events Snow    
Averages and records for this station are not official NWS values.
T = Trace of Precipitation, MM = Missing Value Source: NWS Daily Summary

Daily Weather History Graph

Daily Weather History Graph

Search for Another Location

Airport:

Trip Planner

Search our weather history database for the weather conditions in past years. The results will help you decide how hot, cold, wet, or windy it might be!

Date:

Astronomy

Jan. 17, 2013 Rise Set
Actual Time 7:37 AM CST 4:46 PM CST
Civil Twilight 7:04 AM CST 5:20 PM CST
Nautical Twilight 6:27 AM CST 5:56 PM CST
Astronomical Twilight 5:51 AM CST 6:32 PM CST
Moon 10:21 AM CST (1/17) No Moon Set
Length of Visible Light 10h 15m
Length of Day
9h 09m
Waxing Crescent, 38% of the Moon is Illuminated
Jan 17
Waxing Crescent
Jan 18
First Quarter
Jan 26
Full
Feb 3
Last Quarter
Feb 10
New

Hourly Weather History & Observations

Time (CST) Temp. Windchill Dew Point Humidity Pressure Visibility Wind Dir Wind Speed Gust Speed Precip Events Conditions
12:15 AM 12.2 °F 1.7 °F 1.4 °F 62% 30.10 in 10.0 mi NNW 6.9 mph - N/A   Unknown
12:35 AM 12.2 °F 1.7 °F 1.4 °F 62% 30.11 in 10.0 mi NNW 6.9 mph - N/A   Unknown
12:55 AM 10.4 °F -1.5 °F 1.4 °F 67% 30.13 in 10.0 mi NNW 8.1 mph - N/A   Unknown
1:15 AM 10.4 °F -0.4 °F 1.4 °F 67% 30.15 in 10.0 mi NW 6.9 mph - N/A   Unknown
1:35 AM 10.4 °F 0.8 °F 1.4 °F 67% 30.15 in 10.0 mi NW 5.8 mph - N/A   Unknown
2:15 AM 10.4 °F 2.2 °F 1.4 °F 67% 30.17 in 10.0 mi NW 4.6 mph - N/A   Unknown
2:35 AM 8.6 °F -2.6 °F -0.4 °F 67% 30.17 in 10.0 mi NW 6.9 mph - N/A   Unknown
2:55 AM 8.6 °F - -0.4 °F 67% 30.18 in 10.0 mi Calm Calm - N/A   Clear
3:15 AM 6.8 °F -2.0 °F -0.4 °F 72% 30.18 in 10.0 mi NW 4.6 mph - N/A   Clear
3:35 AM 6.8 °F -2.0 °F -0.4 °F 72% 30.18 in 10.0 mi NW 4.6 mph - N/A   Unknown
3:55 AM 6.8 °F -4.8 °F -0.4 °F 72% 30.18 in 10.0 mi NW 6.9 mph - N/A   Unknown
4:15 AM 6.8 °F -2.0 °F -0.4 °F 72% 30.18 in 10.0 mi NW 4.6 mph - N/A   Unknown
4:35 AM 6.8 °F -4.8 °F -0.4 °F 72% 30.18 in 10.0 mi WNW 6.9 mph - N/A   Unknown
4:55 AM 6.8 °F -2.0 °F -2.2 °F 67% 30.18 in 10.0 mi WNW 4.6 mph - N/A   Unknown
5:15 AM 5.0 °F -2.1 °F -2.2 °F 72% 30.18 in 10.0 mi WNW 3.5 mph - N/A   Unknown
5:35 AM 3.2 °F - -2.2 °F 78% 30.19 in 10.0 mi Calm Calm - N/A   Clear
5:55 AM 3.2 °F - -2.2 °F 78% 30.20 in 10.0 mi Calm Calm - N/A   Clear
6:15 AM 3.2 °F - -2.2 °F 78% 30.21 in 10.0 mi Calm Calm - N/A   Clear
6:35 AM 3.2 °F -4.2 °F -5.8 °F 66% 30.22 in 10.0 mi WNW 3.5 mph - N/A   Unknown
6:55 AM 3.2 °F -6.2 °F -5.8 °F 66% 30.23 in 10.0 mi WNW 4.6 mph - N/A   Unknown
7:15 AM 3.2 °F -4.2 °F -5.8 °F 66% 30.24 in 10.0 mi WNW 3.5 mph - N/A   Unknown
7:35 AM 3.2 °F -6.2 °F -5.8 °F 66% 30.24 in 10.0 mi WNW 4.6 mph - N/A   Unknown
7:55 AM 3.2 °F -6.2 °F -5.8 °F 66% 30.25 in 10.0 mi WNW 4.6 mph - N/A   Unknown
8:15 AM 3.2 °F - -5.8 °F 66% 30.24 in 10.0 mi Calm Calm - N/A   Overcast
8:35 AM 3.2 °F -6.2 °F -5.8 °F 66% 30.25 in 10.0 mi WSW 4.6 mph - N/A   Overcast
8:55 AM 3.2 °F -6.2 °F -5.8 °F 66% 30.26 in 10.0 mi WNW 4.6 mph - N/A   Overcast
9:15 AM 5.0 °F -2.1 °F -5.8 °F 61% 30.26 in 10.0 mi WNW 3.5 mph - N/A   Unknown
9:35 AM 5.0 °F -2.1 °F -5.8 °F 61% 30.26 in 10.0 mi WNW 3.5 mph - N/A   Unknown
9:55 AM 5.0 °F -4.1 °F -5.8 °F 61% 30.27 in 10.0 mi WNW 4.6 mph - N/A   Scattered Clouds
10:15 AM 6.8 °F -3.5 °F -4.0 °F 61% 30.27 in 10.0 mi WNW 5.8 mph - N/A   Mostly Cloudy
10:35 AM 6.8 °F -2.0 °F -2.2 °F 67% 30.27 in 10.0 mi West 4.6 mph - N/A   Overcast
10:55 AM 8.6 °F -1.3 °F -2.2 °F 62% 30.28 in 7.0 mi West 5.8 mph - N/A   Overcast
11:15 AM 8.6 °F -2.6 °F -0.4 °F 67% 30.28 in 2.5 mi West 6.9 mph - N/A Snow Light Snow
11:35 AM 8.6 °F -1.3 °F 1.4 °F 73% 30.27 in 3.0 mi WNW 5.8 mph - N/A   Haze
11:55 AM 8.6 °F -2.6 °F -0.4 °F 67% 30.27 in 7.0 mi West 6.9 mph - N/A   Overcast
12:15 PM 8.6 °F -2.6 °F 1.4 °F 73% 30.26 in 5.0 mi NW 6.9 mph - N/A   Haze
12:35 PM 10.4 °F -0.4 °F 1.4 °F 67% 30.26 in 5.0 mi West 6.9 mph - N/A   Haze
12:55 PM 10.4 °F 0.8 °F 1.4 °F 67% 30.25 in 7.0 mi WNW 5.8 mph - N/A   Unknown
1:15 PM 10.4 °F -1.5 °F 1.4 °F 67% 30.25 in 10.0 mi WNW 8.1 mph - N/A   Mostly Cloudy
1:35 PM 10.4 °F -0.4 °F 1.4 °F 67% 30.25 in 10.0 mi WNW 6.9 mph - N/A   Mostly Cloudy
1:55 PM 10.4 °F -0.4 °F -0.4 °F 62% 30.25 in 10.0 mi West 6.9 mph - N/A   Mostly Cloudy
2:15 PM 10.4 °F 0.8 °F -0.4 °F 62% 30.24 in 10.0 mi West 5.8 mph - N/A   Mostly Cloudy
2:35 PM 12.2 °F 2.9 °F -0.4 °F 57% 30.24 in 10.0 mi NW 5.8 mph - N/A   Scattered Clouds
2:55 PM 12.2 °F 2.9 °F -0.4 °F 57% 30.25 in 10.0 mi NW 5.8 mph - N/A   Unknown
3:15 PM 12.2 °F 6.1 °F -0.4 °F 57% 30.25 in 10.0 mi West 3.5 mph - N/A   Unknown
3:35 PM 10.4 °F 2.2 °F -0.4 °F 62% 30.26 in 10.0 mi WSW 4.6 mph - N/A   Unknown
3:55 PM 10.4 °F -0.4 °F -0.4 °F 62% 30.26 in 10.0 mi WNW 6.9 mph - N/A   Clear
4:55 PM 10.4 °F 2.2 °F -0.4 °F 62% 30.27 in 10.0 mi WNW 4.6 mph - N/A   Mostly Cloudy
5:35 PM 8.6 °F - -0.4 °F 67% 30.28 in 10.0 mi Calm Calm - N/A   Scattered Clouds
7:55 PM 1.4 °F - -2.2 °F 85% 30.29 in 10.0 mi Calm Calm - N/A   Clear
8:15 PM 1.4 °F - -2.2 °F 85% 30.30 in 10.0 mi Calm Calm - N/A   Clear
8:55 PM -0.4 °F - -4.0 °F 85% 30.29 in 10.0 mi Calm Calm - N/A   Clear
9:15 PM -0.4 °F - -4.0 °F 85% 30.29 in 10.0 mi Calm Calm - N/A   Clear
9:35 PM -2.2 °F - -5.8 °F 85% 30.28 in 10.0 mi Calm Calm - N/A   Clear
9:55 PM -2.2 °F - -5.8 °F 85% 30.28 in 10.0 mi Calm Calm - N/A   Clear
11:15 PM -4.0 °F - -7.6 °F 85% 30.27 in 10.0 mi Calm Calm - N/A   Clear
11:35 PM -2.2 °F - -5.8 °F 85% 30.26 in 10.0 mi Calm Calm - N/A   Clear
11:55 PM -2.2 °F - -7.6 °F 78% 30.26 in 10.0 mi Calm Calm - N/A   Clear